| time (UTC) | temp F | wind direction | speed MPH | gust MPH | rain 1hr in | rain 24hr in | rain mn in | humidity % | barometer mb |
| 20260504034614 | 53 | 51 | 4.0 | 17.0 | 0.00 | 0.00 | 0.00 | 65 | 994.4 |
| 20260504033016 | 59 | 344 | 4.0 | 18.0 | 0.00 | 0.00 | 0.00 | 52 | 993.9 |
| 20260504031529 | 66 | 328 | 10.0 | 15.0 | 0.00 | 0.00 | 0.00 | 36 | 992.4 |
| 20260504030043 | 67 | 310 | 13.0 | 21.0 | 0.00 | 0.00 | 0.00 | 34 | 992.2 |
| 20260504024551 | 66 | 280 | 10.0 | 16.0 | 0.00 | 0.00 | 0.00 | 33 | 992.0 |
| 20260504023002 | 66 | 279 | 7.0 | 14.0 | 0.00 | 0.00 | 0.00 | 33 | 991.8 |
| 20260504021527 | 67 | 260 | 8.0 | 12.0 | 0.00 | 0.00 | 0.00 | 32 | 991.6 |
| 20260504020036 | 68 | 273 | 5.0 | 11.0 | 0.00 | 0.00 | 0.00 | 32 | 991.7 |
| 20260504014600 | 69 | 272 | 8.0 | 14.0 | 0.00 | 0.00 | 0.00 | 31 | 992.0 |
| 20260504013052 | 69 | 265 | 7.0 | 15.0 | 0.00 | 0.00 | 0.00 | 30 | 992.3 |
| 20260504011605 | 70 | 278 | 9.0 | 16.0 | 0.00 | 0.00 | 0.00 | 29 | 992.8 |
| 20260504010021 | 72 | 305 | 12.0 | 19.0 | 0.00 | 0.00 | 0.00 | 27 | 993.1 |
| 20260504004538 | 72 | 291 | 14.0 | 24.0 | 0.00 | 0.00 | 0.00 | 25 | 993.3 |
| 20260504003058 | 73 | 304 | 14.0 | 26.0 | 0.00 | 0.00 | 0.00 | 25 | 993.7 |
| 20260504001508 | 73 | 293 | 17.0 | 30.0 | 0.00 | 0.00 | 0.00 | 25 | 993.8 |
| 20260504000028 | 74 | 275 | 18.0 | 26.0 | 0.00 | 0.00 | 0.00 | 27 | 994.1 |
| 20260503234546 | 74 | 291 | 16.0 | 30.0 | 0.00 | 0.00 | 0.00 | 26 | 994.3 |
| 20260503233049 | 74 | 303 | 16.0 | 26.0 | 0.00 | 0.00 | 0.00 | 27 | 994.7 |
| 20260503231604 | 74 | 305 | 15.0 | 29.0 | 0.00 | 0.00 | 0.00 | 27 | 995.0 |
| 20260503230020 | 74 | 275 | 15.0 | 29.0 | 0.00 | 0.00 | 0.00 | 28 | 995.2 |
| 20260503224517 | 74 | 296 | 16.0 | 29.0 | 0.00 | 0.00 | 0.00 | 28 | 995.5 |
| 20260503223019 | 74 | 275 | 12.0 | 26.0 | 0.00 | 0.00 | 0.00 | 30 | 995.7 |
| 20260503221531 | 73 | 273 | 13.0 | 32.0 | 0.00 | 0.00 | 0.00 | 29 | 995.8 |
| 20260503220049 | 73 | 281 | 14.0 | 32.0 | 0.00 | 0.00 | 0.00 | 30 | 996.4 |
| 20260503214544 | 73 | 300 | 13.0 | 26.0 | 0.00 | 0.00 | 0.00 | 30 | 996.7 |
| 20260503213052 | 73 | 303 | 18.0 | 27.0 | 0.00 | 0.00 | 0.00 | 29 | 997.1 |
| 20260503211548 | 73 | 291 | 14.0 | 32.0 | 0.00 | 0.00 | 0.00 | 30 | 997.5 |
| 20260503210105 | 72 | 303 | 16.0 | 27.0 | 0.00 | 0.00 | 0.00 | 29 | 998.0 |
| 20260503204510 | 73 | 287 | 15.0 | 33.0 | 0.00 | 0.00 | 0.00 | 29 | 998.2 |
| 20260503203025 | 73 | 300 | 15.0 | 30.0 | 0.00 | 0.00 | 0.00 | 30 | 998.5 |
| 20260503201524 | 72 | 291 | 16.0 | 28.0 | 0.00 | 0.00 | 0.00 | 29 | 998.9 |
| 20260503200028 | 73 | 283 | 12.0 | 25.0 | 0.00 | 0.00 | 0.00 | 31 | 999.3 |
| 20260503194531 | 71 | 279 | 10.0 | 27.0 | 0.00 | 0.00 | 0.00 | 32 | 999.6 |
| 20260503193036 | 70 | 275 | 12.0 | 26.0 | 0.00 | 0.00 | 0.00 | 34 | 1000.2 |
| 20260503191548 | 71 | 273 | 10.0 | 26.0 | 0.00 | 0.00 | 0.00 | 33 | 1000.4 |
| 20260503190007 | 70 | 291 | 10.0 | 26.0 | 0.00 | 0.00 | 0.00 | 32 | 1000.8 |
| 20260503184509 | 70 | 279 | 9.0 | 26.0 | 0.00 | 0.00 | 0.00 | 33 | 1001.1 |
| 20260503183012 | 69 | 338 | 12.0 | 27.0 | 0.00 | 0.00 | 0.00 | 32 | 1001.7 |
| 20260503181524 | 69 | 282 | 12.0 | 29.0 | 0.00 | 0.00 | 0.00 | 32 | 1002.0 |
| 20260503180027 | 69 | 287 | 12.0 | 21.0 | 0.00 | 0.00 | 0.00 | 32 | 1002.3 |
| 20260503174539 | 68 | 301 | 10.0 | 19.0 | 0.00 | 0.00 | 0.00 | 33 | 1002.6 |
| 20260503173050 | 68 | 287 | 13.0 | 27.0 | 0.00 | 0.00 | 0.00 | 33 | 1003.0 |
| 20260503171556 | 67 | 327 | 10.0 | 24.0 | 0.00 | 0.00 | 0.00 | 34 | 1003.4 |
| 20260503081513 | 36 | 336 | 3.0 | 5.0 | 0.00 | 0.00 | 0.00 | 71 | 1007.8 |
| 20260503071536 | 37 | 352 | 2.0 | 4.0 | 0.00 | 0.00 | 0.00 | 70 | 1007.7 |
| 20260503054604 | 40 | 14 | 0.0 | 2.0 | 0.00 | 0.00 | 0.00 | 67 | 1008.1 |
| 20260503053013 | 41 | 27 | 0.0 | 2.0 | 0.00 | 0.00 | 0.00 | 65 | 1008.0 |
| 20260503051512 | 43 | 56 | 0.0 | 2.0 | 0.00 | 0.00 | 0.00 | 63 | 1007.9 |
| 20260503050033 | 44 | 19 | 0.0 | 3.0 | 0.00 | 0.00 | 0.00 | 61 | 1007.9 |
| 20260503044528 | 45 | 20 | 0.0 | 5.0 | 0.00 | 0.00 | 0.00 | 61 | 1007.8 |
| 20260503043021 | 46 | 15 | 0.0 | 5.0 | 0.00 | 0.00 | 0.00 | 61 | 1007.8 |
| 20260503041515 | 48 | 341 | 2.0 | 6.0 | 0.00 | 0.00 | 0.00 | 60 | 1007.7 |
| 20260503040019 | 49 | 345 | 2.0 | 8.0 | 0.00 | 0.00 | 0.00 | 59 | 1007.6 |